Terminal Aerodrome Forecast
Issued by NWS

Home | Current Version | Previous Version | Text Only | Print | Product List | Glossary On
Versions: 1 2 3 4 5 6 7 8 9 10 11 12 13 14 15 16 17 18 19 20 21 22 23 24 25 26
000
FTUS46 KMTR 170900 AAA
TAFSFO
TAF AMD
KSFO 170907Z 1709/1812 28006KT P6SM SKC
     FM171700 04005KT P6SM FEW010
     FM172200 29012KT P6SM FEW012
     FM180400 29007KT P6SM FEW012=

USA.gov is the U.S. government's official web portal to all federal, state and local government web resources and services.